EDT,Max TemperatureF,Mean TemperatureF,Min TemperatureF,Max Dew PointF,MeanDew PointF,Min DewpointF,Max Humidity, Mean Humidity, Min Humidity, Max Sea Level PressureIn, Mean Sea Level PressureIn, Min Sea Level PressureIn, Max VisibilityMiles, Mean VisibilityMiles, Min VisibilityMiles, Max Wind SpeedMPH, Mean Wind SpeedMPH, Max Gust SpeedMPH,PrecipitationIn, CloudCover, Events, WindDirDegrees
2010-10-1,82,72,64,66,64,61,93,74,56,29.83,29.76,29.70,10,10,10,10,4,17,0.00,2,,32
2010-10-2,80,74,68,70,65,62,87,75,66,29.86,29.83,29.79,10,10,8,16,7,23,0.00,4,Rain,5
2010-10-3,80,71,62,61,56,50,86,62,38,29.99,29.91,29.84,10,10,10,12,6,18,0.00,1,,12
2010-10-4,80,68,57,60,53,47,87,61,34,30.09,30.03,29.98,10,10,10,13,7,,0.00,0,,341
2010-10-5,75,68,61,59,55,51,78,63,51,30.14,30.10,30.06,10,10,10,15,10,23,0.00,1,,13
2010-10-6,73,63,53,54,48,43,86,58,34,30.16,30.09,30.04,10,10,10,10,8,18,0.00,0,,11
2010-10-7,81,64,48,53,47,41,92,63,26,30.09,30.05,29.99,10,10,7,8,2,,0.00,0,,32
2010-10-8,84,66,51,61,53,48,90,72,32,30.07,30.03,30.00,10,9,0,7,1,,0.00,0,Fog,45
2010-10-9,84,68,53,63,57,53,100,77,37,30.08,30.03,29.99,10,8,0,9,1,,0.00,0,Fog,107
2010-10-10,86,70,57,64,59,55,100,81,41,30.05,30.01,29.95,10,6,0,9,1,,0.00,0,Fog,143
2010-10-11,86,72,61,67,60,53,93,70,34,30.05,30.00,29.95,10,10,7,9,2,,0.00,2,,245
2010-10-12,84,70,57,65,60,55,100,85,41,30.04,30.00,29.95,10,5,0,9,1,,0.00,1,Fog,199
2010-10-13,84,72,59,66,61,57,100,85,44,30.03,29.98,29.93,10,5,0,9,1,,0.00,1,Fog,293
2010-10-14,84,72,60,67,60,50,100,76,31,29.97,29.93,29.85,10,7,0,18,3,24,0.00,0,Fog,288
2010-10-15,78,66,52,49,42,33,77,47,21,30.03,29.98,29.91,10,10,10,13,8,,0.00,0,,332
2010-10-16,79,64,50,56,50,44,86,67,42,30.16,30.08,30.01,10,10,10,14,3,21,0.00,0,,42
2010-10-17,78,62,48,55,49,44,89,67,34,30.19,30.13,30.08,10,10,8,8,2,,0.00,0,,86
2010-10-18,81,63,46,55,49,45,100,77,30,30.12,30.06,29.99,10,6,0,8,1,,0.00,1,Fog,171
2010-10-19,82,68,53,62,56,50,100,73,34,30.04,29.97,29.91,10,9,2,10,1,,0.00,1,Fog,292
2010-10-20,84,70,57,61,56,50,100,69,32,29.97,29.93,29.87,10,9,2,14,2,20,0.00,1,,264
2010-10-21,84,70,55,63,57,48,94,77,32,30.00,29.95,29.91,10,6,1,10,2,,0.00,0,,325
2010-10-22,82,66,50,59,51,43,93,68,26,30.16,30.07,30.00,10,10,6,10,2,,0.00,0,,48
2010-10-23,82,68,55,68,62,52,97,78,54,30.22,30.18,30.15,10,10,6,15,4,22,0.00,3,Rain,86
2010-10-24,86,70,57,67,61,55,100,89,46,30.20,30.15,30.07,10,4,0,15,1,18,0.00,1,Fog,146
2010-10-25,90,74,62,73,68,60,100,83,51,30.06,30.00,29.89,10,8,1,16,5,22,0.00,3,,175
2010-10-26,90,79,70,74,72,69,97,82,53,30.03,29.98,29.92,10,9,4,13,6,22,0.00,2,,180
2010-10-27,87,79,71,74,73,70,97,82,61,30.13,30.08,30.02,10,10,7,13,6,,0.00,2,,174
2010-10-28,90,80,71,74,71,65,100,85,46,30.13,30.08,29.99,10,8,0,12,4,,0.00,4,Fog,251
2010-10-29,78,66,54,70,55,43,90,63,35,30.16,30.08,30.01,10,10,10,18,10,29,0.00,2,,5
2010-10-30,80,66,52,60,55,50,93,73,40,30.21,30.14,30.10,10,10,9,9,2,16,0.00,1,,100
2010-10-31,82,68,54,63,57,51,94,76,45,30.13,30.08,30.03,10,8,2,12,2,,0.00,1,,222